When you browse on this site, cookies collect data to enhance your experience and personalize the content and advertising you see.
Visit our Privacy Policy to learn more. By continuing to use the site, you agree to this use of cookies and data.
  • En España
  • Lista de países
  • Para 7 días
  • Temperatura del agua
  • Mapa Satelital
  • El tiempo en el mapa
  • Informadores
  • user-avatar
    Iniciar sesión

    Tiempo cada hora Benguela

    Hoy, 17 Enero, Jueves

    Tiempo Temperatura Precipitaciones Viento Presión Humedad
    00:00 +30°C° 0.1 mm 2 mps 759 mmHg 51%
    01:00 +29°C° 0 mm 2 mps 759 mmHg 55%
    02:00 +29°C° 0 mm 2 mps 759 mmHg 57%
    03:00 +29°C° 0 mm 2 mps 759 mmHg 59%
    04:00 +28°C° 0 mm 2 mps 759 mmHg 61%
    05:00 +28°C° 0 mm 2 mps 759 mmHg 61%
    06:00 +28°C° 0 mm 2 mps 759 mmHg 62%
    07:00 +28°C° 0 mm 1 mps 759 mmHg 62%
    08:00 +29°C° 0 mm 1 mps 759 mmHg 61%
    09:00 +29°C° 0 mm 1 mps 759 mmHg 60%
    10:00 +29°C° 0 mm 1 mps 759 mmHg 59%
    11:00 +30°C° 0 mm 1 mps 759 mmHg 56%
    12:00 +31°C° 0 mm 1 mps 758 mmHg 53%
    13:00 +32°C° 0 mm 2 mps 758 mmHg 50%
    14:00 +34°C° 0 mm 3 mps 757 mmHg 47%
    15:00 +34°C° 0 mm 4 mps 757 mmHg 44%
    16:00 +35°C° 0 mm 5 mps 756 mmHg 41%
    17:00 +33°C° 0 mm 4 mps 757 mmHg 47%
    18:00 +32°C° 0 mm 4 mps 757 mmHg 53%
    19:00 +29°C° 0 mm 3 mps 757 mmHg 59%
    20:00 +29°C° 0 mm 3 mps 758 mmHg 61%
    21:00 +28°C° 0 mm 2 mps 759 mmHg 64%
    22:00 +28°C° 0 mm 2 mps 759 mmHg 67%
    23:00 +28°C° 0 mm 2 mps 759 mmHg 67%

    Mañana, 18 Enero, Viernes

    Tiempo Temperatura Precipitaciones Viento Presión Humedad
    00:00 +27°C° 0 mm 1 mps 759 mmHg 68%
    01:00 +27°C° 0 mm 1 mps 759 mmHg 69%
    02:00 +27°C° 0 mm 1 mps 759 mmHg 69%
    03:00 +27°C° 0 mm 1 mps 758 mmHg 70%
    04:00 +27°C° 0 mm 1 mps 758 mmHg 71%
    05:00 +27°C° 0 mm 1 mps 758 mmHg 69%
    06:00 +27°C° 0 mm 1 mps 759 mmHg 67%
    07:00 +27°C° 0 mm 1 mps 759 mmHg 65%
    08:00 +29°C° 0 mm 1 mps 759 mmHg 57%
    09:00 +31°C° 0 mm 2 mps 759 mmHg 49%
    10:00 +34°C° 0 mm 2 mps 759 mmHg 41%
    11:00 +34°C° 0 mm 3 mps 759 mmHg 40%
    12:00 +35°C° 0 mm 4 mps 758 mmHg 40%
    13:00 +36°C° 0 mm 5 mps 757 mmHg 39%
    14:00 +35°C° 0 mm 5 mps 757 mmHg 42%
    15:00 +34°C° 0 mm 6 mps 757 mmHg 45%
    16:00 +34°C° 0 mm 6 mps 756 mmHg 49%
    17:00 +32°C° 0 mm 5 mps 757 mmHg 54%
    18:00 +30°C° 0 mm 4 mps 757 mmHg 60%
    19:00 +29°C° 0 mm 3 mps 758 mmHg 66%
    20:00 +28°C° 0 mm 3 mps 759 mmHg 67%
    21:00 +28°C° 0 mm 2 mps 759 mmHg 69%
    22:00 +28°C° 0 mm 2 mps 760 mmHg 70%
    23:00 +28°C° 0 mm 1 mps 760 mmHg 70%

    Pasado mañana, 19 Enero, Sábado

    Tiempo Temperatura Precipitaciones Viento Presión Humedad
    00:00 +27°C° 0 mm 1 mps 760 mmHg 70%
    01:00 +27°C° 0 mm 1 mps 759 mmHg 70%
    02:00 +27°C° 0 mm 1 mps 759 mmHg 72%
    03:00 +27°C° 0 mm 1 mps 759 mmHg 73%
    04:00 +27°C° 0 mm 1 mps 758 mmHg 74%
    05:00 +27°C° 0 mm 1 mps 759 mmHg 74%
    06:00 +27°C° 0 mm 1 mps 759 mmHg 74%
    07:00 +27°C° 0 mm 1 mps 760 mmHg 75%
    08:00 +28°C° 0 mm 1 mps 760 mmHg 69%
    09:00 +29°C° 0 mm 1 mps 760 mmHg 63%
    10:00 +30°C° 0 mm 2 mps 760 mmHg 58%
    11:00 +31°C° 0 mm 2 mps 759 mmHg 55%
    12:00 +33°C° 0 mm 3 mps 759 mmHg 52%
    13:00 +34°C° 0 mm 4 mps 758 mmHg 49%
    14:00 +34°C° 0 mm 4 mps 758 mmHg 51%
    15:00 +34°C° 0 mm 5 mps 757 mmHg 53%
    16:00 +33°C° 0 mm 5 mps 757 mmHg 55%
    17:00 +32°C° 0 mm 4 mps 757 mmHg 61%
    18:00 +30°C° 0 mm 4 mps 758 mmHg 67%
    19:00 +29°C° 0 mm 3 mps 758 mmHg 72%
    20:00 +28°C° 0 mm 3 mps 759 mmHg 73%
    21:00 +28°C° 0 mm 2 mps 760 mmHg 74%
    22:00 +28°C° 0 mm 2 mps 760 mmHg 75%
    23:00 +28°C° 0 mm 1 mps 760 mmHg 75%

    20 Enero, Domingo

    Tiempo Temperatura Precipitaciones Viento Presión Humedad
    00:00 +28°C° 0 mm 1 mps 759 mmHg 74%
    01:00 +28°C° 0 mm 1 mps 759 mmHg 74%
    02:00 +28°C° 0.2 mm 1 mps 759 mmHg 75%
    03:00 +28°C° 0.2 mm 1 mps 759 mmHg 77%
    04:00 +27°C° 0.2 mm 1 mps 759 mmHg 78%
    05:00 +27°C° 0.4 mm 1 mps 759 mmHg 78%
    06:00 +27°C° 0.4 mm 1 mps 760 mmHg 78%
    07:00 +25°C° 0.4 mm 0 mps 760 mmHg 77%
    08:00 +28°C° 0.1 mm 1 mps 760 mmHg 73%
    09:00 +28°C° 0.1 mm 1 mps 760 mmHg 69%
    10:00 +29°C° 0.1 mm 1 mps 761 mmHg 64%
    11:00 +30°C° 0 mm 2 mps 760 mmHg 58%
    12:00 +33°C° 0 mm 3 mps 759 mmHg 52%
    13:00 +34°C° 0 mm 4 mps 758 mmHg 46%
    14:00 +34°C° 0 mm 4 mps 758 mmHg 48%
    15:00 +33°C° 0 mm 4 mps 758 mmHg 50%
    16:00 +33°C° 0 mm 4 mps 758 mmHg 52%
    17:00 +32°C° 0 mm 4 mps 758 mmHg 58%
    18:00 +30°C° 0 mm 3 mps 759 mmHg 64%
    19:00 +29°C° 0 mm 2 mps 759 mmHg 70%
    20:00 +28°C° 0 mm 2 mps 760 mmHg 72%
    21:00 +28°C° 0 mm 2 mps 760 mmHg 74%
    22:00 +28°C° 0 mm 2 mps 761 mmHg 76%
    23:00 +28°C° 0 mm 2 mps 760 mmHg 76%

    21 Enero, Lunes

    Tiempo Temperatura Precipitaciones Viento Presión Humedad
    00:00 +27°C° 0 mm 2 mps 760 mmHg 76%
    01:00 +27°C° 0 mm 2 mps 760 mmHg 77%
    02:00 +27°C° 0.1 mm 2 mps 760 mmHg 77%
    03:00 +27°C° 0.1 mm 2 mps 759 mmHg 78%
    04:00 +27°C° 0.1 mm 2 mps 759 mmHg 78%
    05:00 +27°C° 0.3 mm 1 mps 760 mmHg 78%
    06:00 +27°C° 0.3 mm 1 mps 760 mmHg 78%
    07:00 +27°C° 0.3 mm 1 mps 760 mmHg 78%
    08:00 +28°C° 0.1 mm 1 mps 760 mmHg 72%
    09:00 +29°C° 0.1 mm 1 mps 760 mmHg 66%
    10:00 +30°C° 0.1 mm 1 mps 760 mmHg 60%
    11:00 +32°C° 0 mm 2 mps 760 mmHg 55%
    12:00 +34°C° 0 mm 3 mps 759 mmHg 50%
    13:00 +36°C° 0 mm 5 mps 758 mmHg 45%
    14:00 +35°C° 0 mm 5 mps 758 mmHg 47%
    15:00 +34°C° 0 mm 5 mps 757 mmHg 50%
    16:00 +34°C° 0 mm 5 mps 757 mmHg 52%
    17:00 +33°C° 0 mm 4 mps 757 mmHg 58%
    18:00 +30°C° 0 mm 4 mps 758 mmHg 63%
    19:00 +29°C° 0 mm 3 mps 758 mmHg 69%
    20:00 +29°C° 0 mm 3 mps 759 mmHg 69%
    21:00 +29°C° 0 mm 2 mps 759 mmHg 69%
    22:00 +29°C° 0 mm 2 mps 760 mmHg 69%
    23:00 +29°C° 0 mm 2 mps 759 mmHg 70%

    22 Enero, Martes

    Tiempo Temperatura Precipitaciones Viento Presión Humedad
    00:00 +28°C° 0 mm 2 mps 759 mmHg 71%
    01:00 +28°C° 0 mm 2 mps 759 mmHg 72%
    02:00 +28°C° 0.1 mm 2 mps 759 mmHg 73%
    03:00 +28°C° 0.1 mm 2 mps 758 mmHg 74%
    04:00 +28°C° 0.1 mm 2 mps 758 mmHg 74%
    05:00 +28°C° 0 mm 2 mps 759 mmHg 74%
    06:00 +28°C° 0 mm 1 mps 759 mmHg 73%
    07:00 +28°C° 0 mm 1 mps 759 mmHg 72%
    08:00 +29°C° 0 mm 1 mps 759 mmHg 65%
    09:00 +31°C° 0 mm 2 mps 759 mmHg 59%
    10:00 +32°C° 0 mm 2 mps 760 mmHg 52%
    11:00 +34°C° 0 mm 3 mps 759 mmHg 51%
    12:00 +34°C° 0 mm 4 mps 758 mmHg 50%
    13:00 +35°C° 0 mm 5 mps 758 mmHg 48%
    14:00 +34°C° 0 mm 5 mps 757 mmHg 50%
    15:00 +34°C° 0 mm 5 mps 757 mmHg 51%
    16:00 +33°C° 0 mm 4 mps 756 mmHg 53%
    17:00 +32°C° 0 mm 4 mps 757 mmHg 56%
    18:00 +30°C° 0 mm 3 mps 757 mmHg 60%
    19:00 +29°C° 0 mm 3 mps 758 mmHg 64%
    20:00 +29°C° 0 mm 2 mps 758 mmHg 65%
    21:00 +29°C° 0 mm 2 mps 759 mmHg 67%
    22:00 +29°C° 0 mm 2 mps 760 mmHg 69%
    23:00 +28°C° 0 mm 2 mps 759 mmHg 70%
    Mostrar más